Location: Fontevrault
(47.1823°N, 0.0493°E)
Time: 17:06:23
(UTC+00:00)

Cosmos 1725 Rocket - Pass Details

Date: 25 October 2021
Orbit: 961 x 991 km, 82.9° (Epoch: 27 November)

Event Time Altitude Azimuth Distance (km) Brightness Sun altitude
Exits shadow 21:39:29 16° 329° (NNW) 2,305 6.4 -46.6°
Drops below altitude 10° 21:41:17 10° 344° (NNW) 2,715 6.8 -46.8°
Sets 21:44:30 0° 360° (N) 3,663 7.4 -47.2°
